Location: Grust
(42.8833°N, 0.0333°W)
Time: 13:44:18
(UTC+00:00)

MOS 1 Rocket - Pass Details

Date: 25 October 2020
Orbit: 615 x 829 km, 97.4° (Epoch: 24 November)

Event Time Altitude Azimuth Distance (km) Brightness Sun altitude
Rises 18:04:01 0° 24° (NNE) 3,020 6.3 -12.0°
Reaches altitude 10° 18:06:31 10° 37° (NE) 2,135 5.4 -12.5°
Maximum altitude 18:10:29 27° 95° (E) 1,349 4.2 -13.2°
Drops below altitude 10° 18:14:38 10° 153° (SSE) 2,237 5.7 -14.0°
Sets 18:17:17 0° 165° (SSE) 3,193 6.6 -14.5°
